[[{"header":{"parameterUnit":"m.s-1","parameterCategory":1,"la1":30.2992,"la2":30.254,"lo1":-89.0895,"lo2":-89.0443,"dy":0.0025,"dx":0.0025,"nx":19,"ny":19,"refTime":"2026-04-12T21:00:00:Z","depth":0,"parameterNumber":2,"parameterNumberName":"U-component_of_WINDS"},"data":[0,0,0,-2.897,-2.8971,-2.9021,-2.9021,-2.9098,-2.9099,0,0,0,0,0,0,0,0,0,0,0,-2.8963,-2.8964,-2.897,-2.8971,-2.9021,-2.9021,-2.9098,-2.9099,0,0,0,0,0,0,0,0,0,0,0,-2.8962,-2.8963,-2.8964,-2.8971,-2.9021,-2.9021,-2.9097,-2.9055,0,0,0,0,0,0,0,0,0,0,-2.9005,-2.9006,-2.8963,-2.8964,-2.8972,-2.9021,-2.9021,-2.9053,-2.9058,-2.9081,0,-2.9103,0,-2.9102,-2.9105,-2.9105,0,0,0,-2.8965,-2.9002,-2.9008,-2.8965,-2.8972,-2.9021,-2.8997,-2.9056,-2.9061,-2.9087,-2.9104,-2.9107,-2.9104,-2.9105,-2.9106,-2.9258,-2.9259,0,0,-2.8963,-2.8976,-2.9004,-2.9012,-2.9005,-2.8995,-2.8999,-2.9059,-2.9078,-2.9104,-2.9108,-2.9105,-2.9106,-2.9106,-2.9257,-2.9258,0,0,0,-2.8959,-2.8974,-2.8979,-2.9009,-2.9017,-2.8997,-2.9001,-2.9075,-2.9076,-2.9109,-2.9106,-2.9106,-2.9107,-2.9256,-2.9257,-2.9317,0,0,0,-2.8957,-2.8972,-2.8978,-2.8987,-2.9017,-2.9047,-2.9016,-2.9071,-2.9078,-2.9105,-2.9106,-2.9108,-2.9254,-2.9256,-2.9313,-2.9342,0,0,0,-2.8957,-2.8972,-2.8982,-2.8987,-2.9009,-2.9045,-2.9049,-2.9072,-2.9076,-2.9105,-2.9108,-2.9254,-2.9256,-2.931,-2.9337,-2.9385,0,0,0,-2.8961,-2.9034,-2.8983,-2.9064,-2.9009,-2.9083,-2.9049,-2.9103,-2.9135,-2.9107,-2.9255,-2.9257,-2.9308,-2.9333,-2.9382,-2.9427,-2.9448,0,0,-2.9061,-2.9047,-2.9094,-2.9049,-2.9136,-2.9075,-2.917,-2.9187,-2.9178,-2.9232,-2.9235,-2.9314,-2.9336,-2.9384,-2.9564,-2.958,0,0,0,-2.913,-2.9163,-2.9184,-2.9215,-2.9231,-2.9246,-2.9247,-2.9254,-2.9299,-2.9208,-2.9346,-2.9359,-2.9386,-2.9407,-2.9421,-2.9444,-2.9268,-2.9268,-2.9267,-2.9288,-2.9273,-2.935,-2.9342,-2.9373,-2.9375,-2.9398,-2.9407,-2.9383,-2.9416,-2.9431,-2.9541,-2.9567,-2.9577,-2.9601,-2.9456,-2.9456,-2.9456,-2.9457,-2.9431,-2.9475,-2.9444,-2.9506,-2.9491,-2.9543,-2.9549,-2.953,-2.9576,-2.9529,-2.9552,-2.9499,-2.9596,-2.9615,-2.9461,-2.946,-2.946,-2.9459,-2.9459,-2.953,-2.9549,-2.9557,-2.9602,-2.9638,-2.9629,-2.9675,-2.966,-2.9646,-2.967,-2.9683,-2.9682,-2.9677,-2.9678,-2.9679,-2.9679,-2.9679,-2.9679,-2.968,-2.9629,-2.9636,-2.9677,-2.9702,-2.972,-2.9743,-2.9748,-2.9766,-2.9782,-2.9767,-2.9767,-2.9739,-2.9609,-2.9575,-2.9685,-2.9684,-2.9684,-2.9683,-2.9683,-2.9775,-2.974,-2.9803,-2.9822,-2.985,-2.9887,-2.9869,-2.9908,-2.9921,-2.9944,-2.9913,-2.982,-2.9804,-2.9792,-2.9764,-2.9917,-2.9917,-2.9917,-2.9917,-2.9857,-2.9849,-2.991,-2.9941,-2.9971,-2.9961,-3.0033,-3.0039,-3.0038,-3.0046,-3.0023,-2.9985,-2.9974,-2.9964,-2.9949,-2.9922,-3.0112,-3.0112,-3.0113,-2.9945,-2.9939,-3.0002,-3.0002,-3.0024,-3.0043,-3.011,-3.0148,-3.0141,-3.012,-3.0051,-3.0043,-2.9982,-2.9963,-2.9936,-2.9913,-2.9864,0,0]},{"header":{"parameterUnit":"m.s-1","parameterCategory":1,"la1":30.2992,"la2":30.254,"lo1":-89.0895,"lo2":-89.0443,"dy":0.0025,"dx":0.0025,"nx":19,"ny":19,"refTime":"2026-04-12T21:00:00:Z","depth":0,"parameterNumber":3,"parameterNumberName":"V-component_of_WINDS"},"data":[0,0,0,3.3561,3.3561,3.3562,3.3563,3.3543,3.3542,0,0,0,0,0,0,0,0,0,0,0,3.3549,3.3548,3.3561,3.3561,3.3562,3.3563,3.3543,3.3542,0,0,0,0,0,0,0,0,0,0,0,3.3549,3.3548,3.3548,3.3561,3.3562,3.3563,3.3543,3.3549,0,0,0,0,0,0,0,0,0,0,3.3551,3.3528,3.3548,3.3548,3.3561,3.3562,3.3563,3.355,3.3549,3.3533,0,3.3517,0,3.353,3.354,3.354,0,0,0,3.357,3.3529,3.3541,3.3547,3.3561,3.3562,3.3564,3.355,3.3548,3.3532,3.3517,3.3517,3.3529,3.354,3.3539,3.3425,3.3424,0,0,3.3569,3.3542,3.3541,3.3539,3.3539,3.3564,3.3564,3.3549,3.3531,3.3517,3.3517,3.3529,3.3539,3.3539,3.3426,3.3425,0,0,0,3.3564,3.3541,3.3554,3.3539,3.3541,3.3564,3.3564,3.3531,3.3538,3.3517,3.3529,3.3539,3.3539,3.3427,3.3426,3.3353,0,0,0,3.3564,3.3538,3.3553,3.3536,3.3541,3.3536,3.3546,3.3539,3.3538,3.3529,3.3539,3.3538,3.3428,3.3426,3.3358,3.3323,0,0,0,3.3553,3.3537,3.3533,3.3535,3.3535,3.3537,3.3543,3.3539,3.3545,3.354,3.3538,3.3429,3.3427,3.3361,3.3329,3.3286,0,0,0,3.3532,3.3466,3.3531,3.3463,3.3534,3.3493,3.3544,3.3514,3.3501,3.3539,3.3428,3.3426,3.3363,3.3333,3.329,3.3244,3.3222,0,0,3.3433,3.3453,3.3416,3.3474,3.3414,3.3495,3.3425,3.3438,3.3462,3.3436,3.3434,3.3356,3.333,3.3287,3.3112,3.3095,0,0,0,3.3375,3.3347,3.3338,3.3325,3.3336,3.3342,3.337,3.3375,3.3355,3.3443,3.333,3.3315,3.3291,3.327,3.3255,3.3236,3.3415,3.3416,3.3416,3.3193,3.3231,3.3171,3.3209,3.3196,3.3228,3.3221,3.3234,3.3272,3.3245,3.3237,3.3127,3.3101,3.309,3.307,3.3216,3.3216,3.3216,3.3215,3.3052,3.302,3.3077,3.3039,3.3079,3.3048,3.3076,3.3105,3.3081,3.3135,3.3115,3.317,3.307,3.3055,3.321,3.3211,3.3212,3.3212,3.3213,3.2937,3.2928,3.2938,3.2927,3.2913,3.2954,3.293,3.2967,3.3,3.2981,3.2978,3.2979,3.2985,3.2977,3.2977,3.2977,3.2976,3.2976,3.2976,3.2813,3.2827,3.2803,3.2812,3.2811,3.2813,3.2846,3.2845,3.2854,3.2882,3.2882,3.2924,3.3054,3.3086,3.297,3.2971,3.2972,3.2972,3.2973,3.2655,3.2698,3.266,3.2659,3.2674,3.2659,3.2708,3.2704,3.2709,3.2696,3.2743,3.2834,3.2856,3.2868,3.2894,3.2735,3.2735,3.2735,3.2735,3.2558,3.2574,3.2546,3.2542,3.2543,3.2584,3.2541,3.2567,3.26,3.2606,3.2634,3.2673,3.2684,3.2699,3.2715,3.274,3.2546,3.2546,3.2546,3.2463,3.2482,3.2438,3.2473,3.2489,3.25,3.2462,3.2455,3.2501,3.2539,3.2611,3.2619,3.2682,3.27,3.2737,3.276,3.2807,0,0]}]]